{"data":{"norad_id":41032,"intl_designator":"2015-066A","name":"COSMOS 2510 (EKS 1)","alt_names":[],"object_type":"PAYLOAD","status":"ACTIVE","operator":null,"country":"CIS","launch_date":"2015-11-17","launch_site_code":"PLMSC","launch_vehicle":null,"mission":null,"orbit_class":"UNKNOWN","rcs_meters":33.2077,"size_class":null,"mass_kg":null,"dimensions":null,"purposes":[],"wikipedia_slug":null,"has_3d_model":false,"image_url":null,"decayed_at":null,"tle_current":{"epoch":"2026-09-16T13:59:29.958432Z","epoch_age_seconds":383792,"freshness":"STALE","line1":"1 41032U 15066A   26259.58298563 -.00001249  00000+0  00000+0 0  9993","line2":"2 41032  63.4427 333.5696 7191932 274.8926  13.9360  2.00657368 79301","mean_motion":2.00657368,"eccentricity":0.7191932,"inclination_deg":63.4427,"raan_deg":333.5696,"arg_perigee_deg":274.8926,"mean_anomaly_deg":13.936,"bstar":0,"rev_number":7930,"period_min":717.64122810581,"perigee_km":1077.8656582966,"apogee_km":39270.006383014,"semimajor_km":26552.073020656,"source":"CELESTRAK","updated_at":"2026-09-20T09:00:14.115619Z"}}}